Location: Briis
(48.6240°N, 2.1211°E)
Time: 01:29:29
(UTC+00:00)

USA 306 - Pass Details

Date: 25 September 2020
Orbit: 568 x 579 km, 54.0° (Epoch: 23 October)

Event Time Altitude Azimuth Distance (km) Brightness Sun altitude
Exits shadow 04:16:52 16° 300° (WNW) 1,531 4.7 -14.9°
Maximum altitude 04:19:57 40° 5° (N) 844 3.9 -14.4°
Drops below altitude 10° 04:23:59 10° 76° (ENE) 1,869 7.0 -13.7°
Sets 04:26:20 0° 84° (E) 2,766 8.3 -13.3°
